Regional Weather Roundup
Issued by NWS Midland/Odessa, TX

Skip options and go directly to product.
Home | Oldest Version | Next Version | Current Version | All | Text Only | Save Text | Print | Product List | Glossary On

Skip product version selection by date and time.   
421
ASUS44 KMAF 240802
RWRMAF
MIDLAND AREA WEATHER ROUNDUP
NATIONAL WEATHER SERVICE MIDLAND TX
300 AM CDT FRI OCT 24 2014

...IN SOUTHWEST TEXAS AND SOUTHEAST NEW MEXICO...

CITY           SKY/WX    TMP DP  RH WIND       PRES   REMARKS
ALPINE         CLEAR     56  53  92 SW8       30.29S
ANDREWS        FAIR      60  58  95 SW8       30.15F
ARTESIA        NOT AVBL
BIG SPRING     CLEAR     61  59  92 S7        30.16S
CARLSBAD       CLEAR     59  55  87 W6        30.13F
DRYDEN           N/A     63  62  97 N6        30.13S
FORT STOCKTON  CLEAR     60  58  92 S9        30.15S
GUAD PASS      NOT AVBL
HOBBS          CLEAR     55  55 100 SW6       30.18S
MARFA          CLEAR     52  50  93 N7        30.28S
MIDLAND AIRPK  CLEAR     63  59  88 S5        30.15S
MIDLAND INTL   CLEAR     61  58  90 S6        30.14F
ODESSA         CLEAR     62  59  90 SW9       30.16S
PECOS          CLEAR     58  55  92 CALM      30.13S
PRESIDIO       FAIR      67  59  74 N8        30.15R
SEMINOLE       CLEAR     56  55  95 W7        30.17S
SNYDER         CLEAR     60  59  96 S6        30.14S
WINK           CLEAR     62  32  32 SE8       30.12F
$$
...OTHER STATIONS IN TEXAS...

CITY           SKY/WX    TMP DP  RH WIND       PRES   REMARKS
ABILENE        CLEAR     64  59  83 S6        30.11F
AMARILLO       CLEAR     55  54  96 SW9       30.13S FOG
AUSTIN         CLEAR     57  56  96 CALM      30.12S
BROWNSVILLE    CLEAR     67  65  93 NW3       30.06F
CORPUS CHRISTI PTCLDY    66  63  90 W3        30.09R
DALLAS FTW     PTCLDY    64  55  72 S7        30.11S
DEL RIO        CLEAR     66  62  87 NE7       30.10S
EL PASO        CLEAR     59  53  80 E6        30.18S
HOUSTON INT    CLEAR     57  54  89 NE3       30.12S
LUBBOCK        CLEAR     57  55  93 W8        30.14S FOG
SAN ANGELO     CLEAR     57  56  96 SW6       30.13S
SAN ANTONIO    CLEAR     65  58  78 NW3       30.13S
WACO           MOCLDY    65  55  70 S12       30.12S
WICHITA FALLS  NOT AVBL
$$
...OTHER LOCATIONS IN NEW MEXICO...

CITY           SKY/WX    TMP DP  RH WIND       PRES   REMARKS
ALAMAGORDO     NOT AVBL
ALBUQUERQUE    CLEAR     57  37  47 CALM      30.28F
CANNON AFB     CLEAR     59  52  77 W9        30.17F
CLOVIS         CLEAR     54  48  82 W7        30.19S
HOLLOMAN AFB   CLEAR     54  47  78 NE5       30.19S
ROSWELL        CLEAR     53  51  93 S5        30.16R
RUIDOSO        CLEAR     50  36  57 W8        30.36R
SANTA FE       CLEAR     48  30  49 N7        30.31S
TRUTH OR CONSE CLEAR     57  46  66 W10       30.23S
TUCUMCARI      CLEAR     53  40  61 W6        30.14S
$$

USA.gov is the U.S. government's official web portal to all federal, state and local government web resources and services.